Home > Weather > Karlsruhe > Past weeks

Flag for Germany Weather for the Past 2 Weeks in Karlsruhe, Baden-Württemberg, Germany

Now
39 °F

Sunny.


Feels Like: 37 °F
Forecast: 39 / 48 °F
Wind: 3 mph from North

Location: Karlsruhe - Baden Wurttemberg

Current Time: Feb 6, 2016 at 10:54:42 AM

Latest Report: Feb 6, 2016 at 10:20 AM


Visibility: 10 mi

Pressure: 30.07 "Hg

Humidity: 100%

Dew point: 39 °F

Location of KarlsruheLocation

Historic Weather in Karlsruhe — Graph

°F

Karlsruhe Temperature Yesterday

Maximum temperature yesterday: 52 °F (at 1:20 PM)
Minimum temperature yesterday: 34 °F (at 11:50 PM)
Average temperature yesterday: 44 °F

High & Low Weather Summary for the Past Weeks

 TemperatureHumidityPressure
High59 °F (Jan 26, 2:20 PM)100% (Jan 22, 9:20 AM)30.63 "Hg (Jan 22, 9:20 AM)
Low25 °F (Jan 22, 9:20 AM)50% (Jan 25, 1:50 PM)29.89 "Hg (Jan 30, 4:50 PM)
Average44 °F80%30.28 "Hg
* Reported Jan 22 9:20 AM — Feb 6 9:20 AM, Karlsruhe, Weather by CustomWeather, © 2016

Note: Actual official high and low records may vary slightly from our data, if they occured in-between our weather recording intervals... More about our weather records

Advertising

Karlsruhe Weather History for the Previous 24 Hours

 ConditionsComfort  
Time TempWeatherWind HumidityBarometerVisibility
9:20 AM
Sat, Feb 6
34 °FSunny.5 mph93%30.07 "Hg10 mi
8:50 AM32 °FSunny.5 mph100%30.07 "Hg10 mi
8:20 AM30 °FFog.3 mph100%30.09 "HgN/A
7:50 AM30 °FLight fog.1 mph100%30.07 "HgN/A
7:20 AM32 °FClear.2 mph100%30.09 "Hg10 mi
6:50 AM30 °FClear.1 mph100%30.07 "Hg10 mi
6:20 AM30 °FClear.2 mph100%30.09 "Hg10 mi
5:50 AM30 °FClear.2 mph100%30.09 "Hg10 mi
4:50 AM32 °FClear.2 mph100%30.09 "Hg6 mi
12:20 AM34 °FLight fog.No wind93%30.18 "HgN/A
11:50 PM
Fri, Feb 5
34 °FLight fog.No wind100%30.18 "HgN/A
11:20 PM36 °FFog.2 mph93%30.18 "HgN/A
10:50 PM36 °FFog.1 mph100%30.18 "HgN/A
10:20 PM36 °FFog.1 mph100%30.21 "HgN/A
9:50 PM36 °FFog.No wind93%30.21 "Hg3 mi
9:20 PM39 °FFog.1 mph100%30.21 "Hg3 mi
8:50 PM39 °FFog.2 mph93%30.21 "HgN/A
8:20 PM41 °FClear.2 mph93%30.24 "Hg10 mi
7:50 PM41 °FClear.1 mph93%30.24 "Hg10 mi
7:20 PM43 °FPassing clouds.2 mph100%30.24 "HgN/A
6:50 PM45 °FClear.1 mph93%30.24 "Hg10 mi
6:20 PM45 °FClear.2 mph87%30.24 "Hg10 mi
5:50 PM48 °FClear.5 mph82%30.27 "Hg10 mi
5:20 PM50 °FPartly sunny.7 mph76%30.27 "HgN/A
4:50 PM52 °FPartly sunny.7 mph77%30.27 "HgN/A
4:20 PM52 °FPartly sunny.9 mph77%30.27 "HgN/A
3:50 PM52 °FPartly sunny.10 mph72%30.30 "HgN/A
3:20 PM52 °FPartly sunny.10 mph72%30.30 "HgN/A
2:50 PM52 °FPartly sunny.12 mph72%30.30 "HgN/A
2:20 PM52 °FPartly sunny.10 mph72%30.30 "HgN/A
1:50 PM52 °FPartly sunny.12 mph72%30.30 "HgN/A
1:20 PM52 °FPartly sunny.12 mph72%30.33 "HgN/A
12:50 PM50 °FPartly sunny.9 mph76%30.33 "HgN/A
12:20 PM50 °FPartly sunny.10 mph76%30.36 "HgN/A
11:50 AM48 °FSunny.12 mph76%30.36 "Hg10 mi
11:20 AM48 °FSunny.12 mph76%30.36 "Hg10 mi
10:50 AM45 °FSunny.8 mph87%30.36 "Hg10 mi
10:20 AM45 °FPartly sunny.7 mph87%30.39 "HgN/A
Weather by CustomWeather, © 2016

See weather overviewHow to use our weather pages